{"data":{"norad_id":43255,"epoch":"2026-05-24T23:29:15.332352Z","epoch_age_seconds":74014,"freshness":"FRESH","line1":"1 43255U 18030G   26144.97864968 -.00000029  00000+0 -17301-4 0  9993","line2":"2 43255  86.3935 300.1682 0001981  95.0457 265.0965 14.34218138426846","mean_motion":14.34218138,"eccentricity":0.0001981,"inclination_deg":86.3935,"raan_deg":300.1682,"arg_perigee_deg":95.0457,"mean_anomaly_deg":265.0965,"bstar":-1.7301e-5,"rev_number":42684,"period_min":100.4031368623,"perigee_km":776.24829922976,"apogee_km":779.08342832439,"semimajor_km":7155.8028637771,"source":"CELESTRAK","updated_at":"2026-05-25T13:38:14.808658Z"}}